Location: Balsareny
(41.8670°N, 1.8830°E)
Time: 14:11:31
(UTC+02:00)

Tiangong - Visible Passes

Search period start: 08 May 2026 00:00
Search period end: 18 May 2026 00:00
Orbit: 374 x 381 km, 41.5° (Epoch: 8 May)

Date Brightness Start Highest point End Pass type
(mag) Time Alt. Az. Time Alt. Az. Time Alt. Az.
8 May -1.9 04:55:07 48° S 04:55:19 49° SSE 04:58:21 10° E visible
9 May 0.7 03:55:54 13° E 03:55:54 13° E 03:56:20 10° E visible
9 May -2.3 05:27:57 20° W 05:30:00 81° S 05:33:07 10° E visible
10 May -1.5 04:28:43 47° ESE 04:28:43 47° ESE 04:31:08 10° E visible
10 May -2.2 06:01:34 10° W 06:04:41 81° S 06:07:49 10° E visible
11 May -2.3 05:01:31 35° W 05:02:41 86° S 05:05:48 10° E visible
12 May -0.2 04:02:18 25° E 04:02:18 25° E 04:03:45 10° E visible
12 May -2.2 05:34:21 11° W 05:37:17 69° S 05:40:23 10° ESE visible
13 May -2.4 04:35:12 83° S 04:35:12 83° S 04:38:19 10° E visible
14 May 1.0 03:36:09 10° E 03:36:09 10° E 03:36:11 10° E visible
14 May -2.1 05:08:13 26° W 05:09:40 54° SSW 05:12:43 10° ESE visible
15 May -0.2 04:09:23 22° ESE 04:09:23 22° ESE 04:10:39 10° ESE visible
15 May -1.0 05:41:28 11° W 05:43:58 25° SSW 05:46:34 10° SSE visible
16 May -0.9 04:42:57 28° SSE 04:42:57 28° SSE 04:44:49 10° SE visible
17 May -0.2 05:16:59 15° S 05:16:59 15° S 05:18:04 10° SSE visible
